Hourly Data Report for October 15, 2015

All times are specified in Local Standard Time (LST). Add 1 hour to adjust for Daylight Saving Time where and when it is observed.

RESOLUTE BAY A
NUNAVUT

74°43'01.000" N
94°58'10.000" W
67.70 m
2403498
71924
YRB

Download Data

Hourly Data (October 2015)
Hourly Data Report for October 15, 2015
Temp Definition
°C
Dew Point Temp Definition
°C
Rel Hum Definition
%
Wind Dir Definition
10's deg

Wind Spd Definition
km/h
Visibility Definition
km
Stn Press Definition
kPa
Hmdx Definition


Wind Chill Definition


Weather Definition


TIME
00:00 Legend Double Dagger -21.8 -24.2 81 33 21 6.4 99.80   -33 Ice Crystals
01:00 Legend Double Dagger -21.4 -23.7 82 33 26 6.4 99.78   -34 Ice Crystals
02:00 Legend Double Dagger -21.4 -23.7 82 32 28 6.4 99.73   -34 Ice Crystals
03:00 Legend Double Dagger -22.2 -24.6 81 32 29 8.1 99.70   -35 Ice Crystals
04:00 Legend Double Dagger -23.6 -26.1 80 32 31 8.1 99.67   -37 Ice Crystals
05:00 Legend Double Dagger -23.1 -25.5 81 32 33 8.1 99.64   -37 Ice Crystals
06:00 Legend Double Dagger -22.9 -25.3 81 33 36 8.1 99.57   -37 Ice Crystals
07:00 Legend Double Dagger -21.9 -24.3 81 33 34 11.3 99.53   -36 Ice Crystals
08:00 Legend Double Dagger -19.7 -21.9 83 33 32 11.3 99.51   -33 Ice Crystals
09:00 Legend Double Dagger -19.8 -22.0 83 33 40 11.3 99.47   -34 Mostly Cloudy
10:00 Legend Double Dagger -19.4 -21.6 83 33 40 24.1 99.42   -33 LegendNANA
11:00 Legend Double Dagger -18.5 -20.6 84 33 43 17.7 99.39   -33 Ice Crystals
12:00 Legend Double Dagger -17.8 -19.9 84 32 38 22.5 99.35   -31 Ice Crystals
13:00 Legend Double Dagger -17.1 -19.1 85 32 35 24.1 99.35   -30 Snow
14:00 Legend Double Dagger -16.3 -18.1 86 32 28 24.1 99.32   -27 Snow
15:00 Legend Double Dagger -15.6 -17.4 86 33 21 24.1 99.28   -25 Snow
16:00 Legend Double Dagger -14.6 -16.3 87 32 37 24.1 99.25   -27 Snow
17:00 Legend Double Dagger -15.6 -17.4 86 33 34 24.1 99.24   -27 Snow
18:00 Legend Double Dagger -16.6 -18.6 85 33 30 24.1 99.24   -28 Snow
19:00 Legend Double Dagger -15.3 -17.0 87 32 36 24.1 99.24   -27 Snow
20:00 Legend Double Dagger -13.3 -15.0 87 31 36 24.1 99.20   -25 Snow
21:00 Legend Double Dagger -11.8 -13.4 88 31 37 16.1 99.23   -23 Snow
22:00 Legend Double Dagger -12.1 -13.8 87 33 43 11.3 99.29   -24 Snow
23:00 Legend Double Dagger -11.3 -12.6 90 34 36 11.3 99.33   -22 Snow

Notes on Data Quality.

Legend

  • E = Estimated
  • M = Missing
  • NA = Not Available
  • ‡ = Partner data that is not subject to review by the National Climate Archives
Date modified: